Location: Centerville
(32.8776°N, 96.6203°W)
Time: 01:14:20
(UTC+00:00)

ARIANE 5 R/B - Pass Details

Date: 17 June 2021
Orbit: 748 x 795 km, 98.7° (Epoch: 27 July)

Event Time Altitude Azimuth Distance (km) Brightness Sun altitude
Rises 09:43:39 0° 9° (N) 3,198 6.6 -16.8°
Reaches altitude 10° 09:45:57 10° 8° (N) 2,271 5.7 -16.5°
Maximum altitude 09:50:55 70° 285° (WNW) 798 2.4 -15.7°
Enters shadow 09:54:13 21° 206° (SSW) 1,627 3.6 -15.2°
